COMPLETED DISPATCHED CALLS FOR SERVICE

Welcome to the Jacksonville Sheriff’s Office Completed Dispatched Calls for Service webpage. This page displays calls for service made to the Jacksonville Sheriff's Office that have recently been completed. The data on this page is refreshed automatically.

This information is not intended to be used as official crime data. This program does not provide information about all crimes, and excludes specific incidents such as sexual assaults and child abuse.

Disclaimer: The Jacksonville Sheriff's Office makes every effort to produce and publish current and accurate information. No warranties, expressed or implied, are provided for the data herein, its use, or its interpretation. The services provided are for informational purposes only and should not be relied on for any type of legal action.

Last refreshed 6/26 18:00:43

Incident # Dispatched Block Address Signal Call Description  
190626443765 6-26 17:46 10000 BRADLEY RD 1066 CANCEL
190626443739 6-26 17:43 11700 SAN JOSE BLVD 2 63 DISPUTE IMPAIRED/INTOXICATED
190626443753 6-26 17:42 12300 MANGROVE FOREST CT 13 SUSPICIOUS PERSON
190626443752 6-26 17:39 2000 SAN MARCO BV 95 FRAUD/FORGED (CHECK, ID, RX)
190626443718 6-26 17:34 4600 SALISBURY RD 63 DISPUTE
190626443726 6-26 17:30 1200 UNIVERSITY BLVD 13 SUSPICIOUS PERSON
190626443452 6-26 17:30 4500 FRIDEN DR 63 DISPUTE
190626443720 6-26 17:30 100 W MATHEWS BRG 96 ASSIST MOTORIST
190626443724 6-26 17:29 LEM TURNER/I295 1050 TRAFFIC STOP
190626443715 6-26 17:27 700 N LIBERTY ST 73 DRUG INVESTIGATION
190626443714 6-26 17:26 700 N LIBERTY ST 73 DRUG INVESTIGATION
190626443592 6-26 17:26 100 W 41ST ST 22 DOMESTIC
190626443711 6-26 17:26 FT CAROLINE RD AND UNIVERSITY CLUB BLVD 1050 TRAFFIC STOP
190626443676 6-26 17:25 9900 NEW KINGS RD 63 DISPUTE
190626443553 6-26 17:23 400 W 23RD ST 22 DOMESTIC
190626443703 6-26 17:22 CESERY BLVD AND MEADOW LN 1050 TRAFFIC STOP
190626443697 6-26 17:20 7700 W GREENWICH CT 1066 CANCEL
190626443696 6-26 17:20 ATLANTIC BLVD AND S ST JOHNS BLUFF RD 1050 TRAFFIC STOP
190626443654 6-26 17:19 200 W UNION ST 88 ASSAULT
190626443550 6-26 17:18 7200 BARBERIE ST 27 MENTALLY ILL PERSON
190625441029 6-26 17:17 1600 HUBBARD ST 54 ILLEGALLY PARKED CAR
190626443671 6-26 17:12 13000 BROXTON BAY DR 63 DISPUTE
190626443607 6-26 17:09 N LAURA ST AND W 12TH ST 22 DOMESTIC
190626443678 6-26 17:08 1400 HENDRICKS AVE 13 SUSPICIOUS PERSON
190626443675 6-26 17:06 S US 301 HWY AND W I10 EXPWY 68 CON GAME/FLIM FLAM
190626443666 6-26 17:04 MCCORMICK RD AND MONUMENT RD 16 ROAD OBSTRUCTION
190626443665 6-26 17:01 8000 JOFFRE DR 54 ILLEGALLY PARKED CAR
190626443646 6-26 17:00 2900 SALEM CT 63 DISPUTE
190626443660 6-26 16:59 2000 ORLEAN DR 54 ILLEGALLY PARKED CAR
190626443598 6-26 16:58 12400 BISCAYNE BLVD 56 JUVENILE COMPLAINT
190626443658 6-26 16:58 2000 CONSTANT DR 54 ILLEGALLY PARKED CAR
190626443650 6-26 16:57 TROUT RIVER BLVD AND FRANKELLA RD 16 ROAD OBSTRUCTION
190626443651 6-26 16:56 ATLANTIC BLVD AND HODGES BLVD 16 ROAD OBSTRUCTION
190626443577 6-26 16:56 7600 N KNOLL DR 1066 CANCEL
190626443648 6-26 16:56 11100 SAN JOSE BLVD 63 DISPUTE
190626443620 6-26 16:56 9600 MCDANIELS DR 22 DOMESTIC
190626443649 6-26 16:55 700 QUEENS HARBOR BLVD 1050 TRAFFIC STOP
190626443524 6-26 16:54 7600 103RD ST 63 DISPUTE
190626443628 6-26 16:54 2200 N MYRTLE AVE 63 DISPUTE
190626443590 6-26 16:53 8200 BERRY AVE 95IDT IDENTITY THEFT TELESERVE
190626443633 6-26 16:52 5800 HICKSON RD 54 ILLEGALLY PARKED CAR
190626443632 6-26 16:50 10100 N GATE PKWY 57 PERSON CALLING FOR HELP
190626443635 6-26 16:50 STOCK/RICK 13 SUSPICIOUS PERSON
190626443631 6-26 16:49 E I10 EXPWY AND S CHAFFEE RD 96 ASSIST MOTORIST
190626443630 6-26 16:46 N KERNAN BLVD AND ATLANTIC BLVD 4 AUTO CRASH
190626443625 6-26 16:46 1000 W WESTBROOK CIR 14 VANDALISM
190626443621 6-26 16:46 AIRPORT RD AND S I95 EXPWY 4 AUTO CRASH
190626443626 6-26 16:45 8300 S US 301 HWY 3 HIT AND RUN CRASH
190626443604 6-26 16:45 800 WHITLOCK AVE 63 DISPUTE
190626443623 6-26 16:44 W 45TH ST AND NEW KINGS RD 16 ROAD OBSTRUCTION
190626443603 6-26 16:41 3200 HARTLEY RD 37 UNVERIFIED 911 CALL
190626443484 6-26 16:41 100 W UNION ST 2 63 DISPUTE IMPAIRED/INTOXICATED
190626443425 6-26 16:41 12200 ATLANTIC BLVD 63 DISPUTE
190626443616 6-26 16:40 10300 SOUTHSIDE BLVD 9P THEFT IN PROGRESS
190626443468 6-26 16:40 100 W 30TH ST 63 DISPUTE
190626443615 6-26 16:38 8100 ATLANTIC BLVD 13 SUSPICIOUS PERSON
190626443581 6-26 16:37 BUNION DR AND HIPPS RD 12 RECKLESS DRIVER
190626443402 6-26 16:36 100 E 54TH ST 13 SUSPICIOUS PERSON
190626443594 6-26 16:35 W 33RD ST AND MONCRIEF RD 63 DISPUTE
190626443595 6-26 16:35 13300 YELLOW BLUFF RD 63 DISPUTE
190626443219 6-26 16:35 9100 6TH AVE 9 THEFT
190626443597 6-26 16:35 8000 N MAIN ST 4 AUTO CRASH
190626443589 6-26 16:34 500 S LANE AVE 63 DISPUTE
190626443599 6-26 16:33 ST AUGUSTINE RD AND SESSIONS LN 63 DISPUTE
190626443568 6-26 16:32 10200 BELLE RIVE BLVD 63 DISPUTE
190626443570 6-26 16:31 3000 W EDGEWOOD AVE 63 DISPUTE
190626443586 6-26 16:31 14200 BEACH BLVD 2 IMPAIRED/INTOXICATED
190626443596 6-26 16:30 PARK ST AND KING ST 1050 TRAFFIC STOP
190626443593 6-26 16:30 5100 STEPP AVE 37 UNVERIFIED 911 CALL
190626443572 6-26 16:29 8700 BAYMEADOWS RD 4 AUTO CRASH
190626443588 6-26 16:27 6100 OLD KINGS RD 1050 TRAFFIC STOP
190626443587 6-26 16:26 700 QUEENS HARBOR BLVD 1050 TRAFFIC STOP
190626443557 6-26 16:26 3200 DONHURST ST 63 DISPUTE
190626443565 6-26 16:25 5500 ATLANTIC BLVD 4 63 CRASH INVOLVING DISPUTE
190626443541 6-26 16:22 N MAIN ST AND W 8TH ST 13 SUSPICIOUS PERSON
190626443539 6-26 16:21 3500 S ST JOHNS BLUFF RD 0 88 ARMED ASSAULT
190626443575 6-26 16:21 W 3RD ST AND N MAIN ST 63 DISPUTE
190626443571 6-26 16:19 10500 MONACO DR 13 SUSPICIOUS PERSON
190626443569 6-26 16:18 1700 KINGS RD 3 HIT AND RUN CRASH
190626443564 6-26 16:17 J TURNER BUTLER BLVD AND S I95 EXPWY 96 ASSIST MOTORIST
190626443558 6-26 16:16 8800 MONCRIEF-DINSMORE RD 37 UNVERIFIED 911 CALL
190626443431 6-26 16:14 2200 W EDGEWOOD AVE 63 DISPUTE
190626443538 6-26 16:13 8100 VILLAGE GATE CT 22 DOMESTIC
190626443532 6-26 16:13 PHILIPS HWY AND SHAD RD 91 TRAFFIC LIGHT/RR CROSSING MALFUNCTION
190626443481 6-26 16:12 200 S LANE AVE 63 DISPUTE
190626443549 6-26 16:11 2000 RIVERSIDE AVE 13 SUSPICIOUS PERSON
190626443551 6-26 16:10 1000 N LANE AVE 1050 TRAFFIC STOP
190626443536 6-26 16:10 2000 JAMMES RD 22 DOMESTIC
190626443544 6-26 16:09 5700 CASTELLANO AVE 3 HIT AND RUN CRASH
190626443465 6-26 16:08 6500 LEONA ST 22 DOMESTIC
190626443545 6-26 16:08 100 N MAIN ST 4 AUTO CRASH
190626443533 6-26 16:05 8400 MERCHANTS WAY 1066 CANCEL
190626443531 6-26 16:04 500 N MYRTLE AVE 16 ROAD OBSTRUCTION
190626443515 6-26 16:04 8300 E PRINCETON SQUARE BLVD 3 HIT AND RUN CRASH
190626443485 6-26 16:02 3600 RIVERSIDE AVE 21CT BURGLARY CONVEYANCE TELESERVE
190626443463 6-26 16:01 7300 BLANDING BLVD 73 DRUG INVESTIGATION
190626443462 6-26 16:00 5200 WOODCREST RD 63 DISPUTE
190626443525 6-26 15:59 BEACH BLVD AND SOUTHSIDE BLVD 68 CON GAME/FLIM FLAM
190626443480 6-26 15:57 12400 PULASKI RD 9 THEFT
190626443110 6-26 15:56 7900 SMART AVE 21R BURGLARY RESIDENCE
190626443519 6-26 15:55 S I295 EXPWY AND PRITCHARD RD 1050 TRAFFIC STOP
190626443497 6-26 15:55 11700 PHILIPS HWY 9 THEFT
190626443517 6-26 15:54 600 8TH ST 19 ANIMAL INVESTIGATION
190626443510 6-26 15:54 RACETRACK RD AND PHILIPS HWY 13 SUSPICIOUS PERSON
190626443511 6-26 15:54 5600 EDENFIELD RD 63 DISPUTE
190626443499 6-26 15:53 10500 MONACO DR 22 DOMESTIC
190626443494 6-26 15:53 100 S HART BRG 16 ROAD OBSTRUCTION
190626443506 6-26 15:51 2200 KINGS AVE 60 SUICIDE OR ATTEMPT
190626443491 6-26 15:50 700 N EDGEWOOD AVE 9 THEFT
190626443489 6-26 15:50 1700 PICKETTVILLE RD 37 UNVERIFIED 911 CALL
190626443505 6-26 15:50 100 N JULIA ST 13 SUSPICIOUS PERSON
190626443500 6-26 15:49 5200 ACOMA AVE 76 ASSIST OTHER AGENCY
190626443498 6-26 15:48 5200 NORWOOD AVE 63 DISPUTE
190626443487 6-26 15:46 8600 GRAYBAR DR 1066 CANCEL
190626443392 6-26 15:45 11100 SAN JOSE BLVD 2 63 DISPUTE IMPAIRED/INTOXICATED
190626443492 6-26 15:43 10300 BEACH BLVD 1050 TRAFFIC STOP
190626443482 6-26 15:42 6300 ROOSEVELT BLVD 5582 HOLDING ONE FOR SHOPLIFTING
190626443483 6-26 15:41 E I10 EXPWY AND STOCKTON ST 96 ASSIST MOTORIST
190626443460 6-26 15:40 5400 AVENUE B 63 DISPUTE
190626443479 6-26 15:38 200 S US 301 HWY 3 HIT AND RUN CRASH
190626443476 6-26 15:38 8000 ATLANTIC BLVD 9 THEFT
190626443467 6-26 15:37 2700 PARK ST 3 HIT AND RUN CRASH
190626443478 6-26 15:37 SIBBALD RD AND GILCHRIST RD 76 ASSIST OTHER AGENCY
190626443449 6-26 15:37 1200 RIVERPLACE BLVD 63 DISPUTE
190626443365 6-26 15:35 7900 103RD ST 22 DOMESTIC
190626443453 6-26 15:34 300 MARTIN LUTHER KING JR DR 63 DISPUTE
190626443458 6-26 15:33 DANDY AVE AND N BOWLAN ST 16 ROAD OBSTRUCTION
190626443470 6-26 15:33 100 N HART BRG 16 ROAD OBSTRUCTION
190626443416 6-26 15:33 N EDGEWOOD AVE AND W 12TH ST 16 ROAD OBSTRUCTION
190626443438 6-26 15:33 800 CESERY BLVD 4 AUTO CRASH
190626443466 6-26 15:31 WIL/FIRE 1050 TRAFFIC STOP
190626443445 6-26 15:31 BROADWAY AVE AND BAKER AVE 63 DISPUTE
190626443429 6-26 15:30 EMERSON ST AND TAYLOR ST 61 FIGHT
190626443450 6-26 15:29 13200 CITY SQUARE DR 3 HIT AND RUN CRASH
190626443451 6-26 15:24 800 N ARLINGTON RD 80 PROSTITUTION (ONLY)
190626443428 6-26 15:23 11900 ATLANTIC BLVD 9T THEFT (TELESERVE)
190626443442 6-26 15:22 N LAURA ST AND W 1ST ST 4 AUTO CRASH
190626443447 6-26 15:21 DENIM/LAKE PARK 1050 TRAFFIC STOP
190626443444 6-26 15:20 100 N DAMES POINT BRG 16 ROAD OBSTRUCTION
190626443440 6-26 15:18 CROSS/MERCH 1050 TRAFFIC STOP
190626443436 6-26 15:18 100 N DAMES POINT BRG 16 ROAD OBSTRUCTION
190626443435 6-26 15:17 OLD PLANK RD AND PERMENTO AVE 88J ASSAULT JUST OCCURRED
190626443415 6-26 15:15 9700 CROSSHILL BLVD 22 DOMESTIC
190626443426 6-26 15:12 100 BUSCH DR 63 DISPUTE
190626443427 6-26 15:12 8600 NORMANDY BLVD 76 ASSIST OTHER AGENCY
190626443423 6-26 15:10 10300 MIDTOWN PKWY 9 THEFT
190626443424 6-26 15:09 2500 W EDGEWOOD AVE 2 IMPAIRED/INTOXICATED
190626443420 6-26 15:08 HURON ST AND W 1ST ST 4 AUTO CRASH
190626443413 6-26 15:07 5600 EDENFIELD RD 21CT BURGLARY CONVEYANCE TELESERVE
190626443418 6-26 15:07 MAX LEGG/AIRPORT 16 ROAD OBSTRUCTION
190626443395 6-26 15:03 OLD BAYMEADOWS RD AND SOUTHSIDE BLVD 88J ASSAULT JUST OCCURRED
190626443398 6-26 15:02 2900 RAYFORD ST 2 63 DISPUTE IMPAIRED/INTOXICATED
190626443391 6-26 15:01 BEACH BLVD AND DEAN RD 4 AUTO CRASH
190626443396 6-26 15:01 5000 EDGEWOOD CT 37 UNVERIFIED 911 CALL
190626443404 6-26 15:00 5500 PLAYA WAY 76 ASSIST OTHER AGENCY
190626443399 6-26 15:00 EAVERSON ST AND W BEAVER ST 96 ASSIST MOTORIST
190626443353 6-26 15:00 11600 TANAGER DR 95 FRAUD/FORGED (CHECK, ID, RX)
190626443379 6-26 14:58 3900 CARMICHAEL AVE 3 HIT AND RUN CRASH
190626443382 6-26 14:56 200 RIVERSIDE AVE 63 DISPUTE
190626443388 6-26 14:55 500 E BAY ST 35 OFFICER NEEDS ASSIST
190626443344 6-26 14:54 3700 BLANDING BLVD 63 DISPUTE
190626443390 6-26 14:54 2900 VERN DR 60 SUICIDE OR ATTEMPT
190626443389 6-26 14:54 700 N LIBERTY ST 73 DRUG INVESTIGATION
190626443238 6-26 14:53 1600 BARTRAM RD 63 DISPUTE
190626443364 6-26 14:53 400 PECAN PARK RD 37 UNVERIFIED 911 CALL
190626443328 6-26 14:53 100 IMESON PARK BLVD 54 ILLEGALLY PARKED CAR
190626443378 6-26 14:50 ATLANTIC BLVD AND ACME ST 13 SUSPICIOUS PERSON
190626443233 6-26 14:50 2200 W EDGEWOOD AVE 9J THEFT JUST OCCURRED
190626443362 6-26 14:49 1000 E 12TH ST 63 DISPUTE
190626443374 6-26 14:49 8100 ATL 13 SUSPICIOUS PERSON
190626442907 6-26 14:49 100 W 44TH ST 95 FRAUD/FORGED (CHECK, ID, RX)
190626443372 6-26 14:48 N GATE PKWY AND DEERWOOD CAMPUS PKWY 4 AUTO CRASH
190626443367 6-26 14:45 2900 STRICKLAND ST 52 ILLEGAL DUMPING
190626443366 6-26 14:45 E BEAVER ST AND N NEWNAN ST 13 SUSPICIOUS PERSON
190626443361 6-26 14:42 1100 E 18TH ST 9T THEFT (TELESERVE)
190626443356 6-26 14:42 500 E BAY ST 21CT BURGLARY CONVEYANCE TELESERVE
190626443341 6-26 14:41 14400 S CHRISTEN DR 56 JUVENILE COMPLAINT
190626443293 6-26 14:41 4500 FRIDEN DR 63 DISPUTE
190626443355 6-26 14:40 9900 SOUTHSIDE BLVD 3 HIT AND RUN CRASH
190626443222 6-26 14:40 5900 MONCRIEF RD 63 DISPUTE
190625440683 6-26 14:39 300 BASSWOOD ST 54 ILLEGALLY PARKED CAR
190626443304 6-26 14:39 9500 N REGENCY SQUARE BLVD 68 CON GAME/FLIM FLAM
190626443326 6-26 14:36 1100 E 11TH ST 73 DRUG INVESTIGATION
190626443274 6-26 14:33 8200 DIX ELLIS TRL 63 DISPUTE
190626443340 6-26 14:32 700 NEW BERLIN RD 53 SOMEONE HURT
190626443339 6-26 14:32 NORMANDY BLVD AND CECIL COMMERCE CENTER PKWY 63 DISPUTE
190626443296 6-26 14:31 1200 LABELLE ST 19 ANIMAL INVESTIGATION
190626443279 6-26 14:31 2900 JUSTINA RD 0 63 ARMED DISPUTE
190626443332 6-26 14:31 3700 EMERSON ST 0 13 ARMED SUSPICIOUS PERSON
190626443307 6-26 14:30 300 GOLFAIR BLVD 0 63 ARMED DISPUTE
190626443323 6-26 14:29 NORMANDY BLVD AND BICENTENNIAL DR 0 63 ARMED DISPUTE
190626443333 6-26 14:28 14200 BEACH BLVD 13 SUSPICIOUS PERSON
190626443169 6-26 14:28 8200 PHILIPS HWY 63 DISPUTE
190626443322 6-26 14:28 1900 KINGS RD 9J THEFT JUST OCCURRED
190626443204 6-26 14:26 3800 N REEDPOND DR 1066 CANCEL
190626443327 6-26 14:26 N BROAD ST AND W BEAVER ST 76 ASSIST OTHER AGENCY
190626443324 6-26 14:25 COLLINS RD AND ORTEGA BLUFF PKWY 4 AUTO CRASH
190626443325 6-26 14:24 100 W INDEPENDENT DR 13 SUSPICIOUS PERSON
190626443308 6-26 14:23 1900 PEARL PL 22 DOMESTIC
190626443313 6-26 14:23 OLD ST AUGUSTINE RD AND ALPHONS ST 4 AUTO CRASH
190626443320 6-26 14:22 12800 S BIGGIN CHURCH RD 1066 CANCEL
190626443301 6-26 14:22 3500 MONCRIEF RD 60 SUICIDE OR ATTEMPT
190626443282 6-26 14:22 7600 MERRILL RD 95 FRAUD/FORGED (CHECK, ID, RX)
190626443319 6-26 14:22 5500 ROOSEVELT BLVD 76 ASSIST OTHER AGENCY
190626443314 6-26 14:21 12400 BISCAYNE BLVD 22 DOMESTIC
190626443317 6-26 14:21 12600 DESOTO ST 50 FOUND/ABANDONED PROPERTY
190626443310 6-26 14:21 12100 BEACH BLVD 88 ASSAULT
190626443309 6-26 14:20 COLLINS RD AND WHISPERING PINES DR 4 53 TRAFFIC CRASH PERSON INJURED
190626443311 6-26 14:20 2300 BROWARD RD 1050 TRAFFIC STOP
190626443302 6-26 14:19 8000 ARLINGTON EXPWY 63 DISPUTE
190626443297 6-26 14:18 2300 EAGLES NEST RD 70 COUNTERFEIT
190626443287 6-26 14:18 DUNN CREEK RD AND NEW BERLIN RD 3 HIT AND RUN CRASH
190626443299 6-26 14:16 N GATE PKWY AND DEERWOOD CAMPUS PKWY 4 AUTO CRASH
190626443300 6-26 14:15 4800 TOWN CENTER PARKWAY 54 ILLEGALLY PARKED CAR
190626443139 6-26 14:15 5900 W BROKEN ARROW DR 63 DISPUTE
190626443298 6-26 14:14 N MAIN ST AND W 10TH ST 13 SUSPICIOUS PERSON
190626443167 6-26 14:14 3500 VICTORIA PARK RD 63 DISPUTE
190626443021 6-26 14:14 1700 W 19TH ST 21R BURGLARY RESIDENCE
190626443286 6-26 14:13 9100 103RD ST 63 DISPUTE
190626443095 6-26 14:12 200 W UNION ST 88 ASSAULT
190626443284 6-26 14:12 2100 W 45TH ST 0 88P ARMED ASSAULT IN PROGRESS
190626443288 6-26 14:09 S LANE AVE AND SAN JUAN AVE 1050 TRAFFIC STOP
190626443241 6-26 14:09 10100 ATLANTIC BLVD 63 DISPUTE
190626443228 6-26 14:08 6700 MCMULLIN ST 63 DISPUTE
190626443272 6-26 14:08 400 SMITH ST 21R BURGLARY RESIDENCE
190626443285 6-26 14:08 500 W 8TH ST 73 DRUG INVESTIGATION
190626443283 6-26 14:07 8700 S OLD KINGS RD 9J THEFT JUST OCCURRED
190626443142 6-26 14:07 EMERSON ST AND PHILIPS HWY 91 TRAFFIC LIGHT/RR CROSSING MALFUNCTION
190626443269 6-26 14:05 MAYO BLVD AND S SAN PABLO RD 1066 CANCEL
190626443278 6-26 14:05 10700 ATLANTIC BLVD 76 ASSIST OTHER AGENCY
190626443273 6-26 14:05 1400 HARRISON ST 76 ASSIST OTHER AGENCY
190626443225 6-26 14:03 3000 POST ST 9J THEFT JUST OCCURRED
190626443203 6-26 14:02 3400 N MAIN ST 60 SUICIDE OR ATTEMPT
190626443208 6-26 14:02 12700 CHANDLERS CROSSING LN 63 DISPUTE
190626443255 6-26 14:02 11100 LEM TURNER RD 13 SUSPICIOUS PERSON
190626443268 6-26 14:01 OLD ST AUGUSTINE RD AND LIVINGSTON RD 60 SUICIDE OR ATTEMPT
190626443265 6-26 14:01 13100 CITY STATION DR 19 ANIMAL INVESTIGATION
190626443224 6-26 14:01 5500 FIRESTONE RD 73 DRUG INVESTIGATION
190626443246 6-26 14:01 11500 COLLINS CREEK DR 22 DOMESTIC
190626443236 6-26 14:01 800 PIONEER DR 9 THEFT
190626443267 6-26 14:01 ARGYLE FOREST BLVD AND CHESWICK OAK AVE 4 AUTO CRASH
190626443108 6-26 14:00 5200 NORWOOD AVE 63 DISPUTE
190626443240 6-26 14:00 6200 103RD ST 63 DISPUTE
190626443256 6-26 14:00 9400 WAGNER RD 9J THEFT JUST OCCURRED
190626443140 6-26 14:00 2100 S LANE AVE 1066 CANCEL
190626443253 6-26 13:59 500 STOCKTON ST 60 SUICIDE OR ATTEMPT
190626443179 6-26 13:59 2200 JAMMES RD 63 DISPUTE
190626443071 6-26 13:59 2200 GREEN OAK DR 95 FRAUD/FORGED (CHECK, ID, RX)
190626443263 6-26 13:58 COMMONWE/EDGEWOOD 1050 TRAFFIC STOP
190626443262 6-26 13:57 W 8TH ST AND BOULEVARD 13 SUSPICIOUS PERSON
190626443249 6-26 13:57 9000 SOUTHSIDE BLVD 37 UNVERIFIED 911 CALL
190626442814 6-26 13:57 4000 N MAIN ST 21B BURGLARY BUSINESS
190626443261 6-26 13:56 800 MUSEUM CIR 63 DISPUTE
190626443064 6-26 13:55 2900 CORONET LN 63 DISPUTE
190626443101 6-26 13:54 3200 N MAIN ST 50 FOUND/ABANDONED PROPERTY
190626443250 6-26 13:52 8200 ATLANTIC BLVD 1050 TRAFFIC STOP
190626443242 6-26 13:51 13200 CITY STATION DR 109 4 AUTO CRASH
190626443237 6-26 13:50 6100 ARGYLE FOREST BLVD 4 AUTO CRASH
190626443211 6-26 13:49 100 S HART BRG 13 SUSPICIOUS PERSON
190626443229 6-26 13:48 6700 ARGYLE FOREST BLVD 4 AUTO CRASH
190626443014 6-26 13:48 8400 JASPER AVE 63 DISPUTE
190626443235 6-26 13:48 1700 W EDGEWOOD AVE 4 AUTO CRASH
190626443217 6-26 13:47 9900 MELROSE CREEK DR 13 SUSPICIOUS PERSON
190626443201 6-26 13:46 2100 W 12TH ST 63 DISPUTE
190626443218 6-26 13:45 10500 SAN JOSE BLVD 1066 CANCEL
190626443216 6-26 13:45 6300 COMMERCE ST 37 UNVERIFIED 911 CALL
190626443184 6-26 13:45 4800 SAPPHO AVE 22 DOMESTIC
190626443070 6-26 13:43 9700 ATLANTIC BLVD 6388 DISPUTE WITH ASSAULT
190626443221 6-26 13:43 E I10 EXPWY AND CASSAT AVE 1050 TRAFFIC STOP
190626443193 6-26 13:43 4600 RIVER CITY DR 37 UNVERIFIED 911 CALL
190626443182 6-26 13:42 13200 COMPANION CT 21C BURGLARY CONVEYANCE
190626443168 6-26 13:41 11900 LEM TURNER RD 63 DISPUTE
190626443191 6-26 13:41 100 N HART BRG 13 SUSPICIOUS PERSON
190626443162 6-26 13:40 8400 BEACH BLVD 63 DISPUTE
190626443215 6-26 13:40 ORIOLE ST AND W EDGEWOOD AVE 4 53 TRAFFIC CRASH PERSON INJURED
190626443213 6-26 13:40 ZOO PKWY AND EASTPORT RD 4 53 TRAFFIC CRASH PERSON INJURED
190626443212 6-26 13:40 E I10 EXPWY AND STOCKTON ST 3 HIT AND RUN CRASH
190626443164 6-26 13:39 9500 SAN JOSE BLVD 63 DISPUTE
190626443210 6-26 13:39 4400 MARQUETTE AVE 60 SUICIDE OR ATTEMPT
190626443144 6-26 13:39 13500 N MAIN ST 63 DISPUTE
190626443209 6-26 13:37 ATLANTIC BLVD AND N ARLINGTON RD 1050 TRAFFIC STOP
190626443207 6-26 13:36 MIDTOWN PKWY AND TOWN CENTER PKWY 1050 TRAFFIC STOP
190626443202 6-26 13:36 9900 OLD BAYMEADOWS RD 4 AUTO CRASH
190626443150 6-26 13:34 8500 W GATE PKWY 63 DISPUTE
190626443197 6-26 13:34 3000 CROSBY LN 16 ROAD OBSTRUCTION
190626443196 6-26 13:33 5200 SUNBEAM RD 52 ILLEGAL DUMPING
190626443195 6-26 13:33 100 S BUCKMAN BRG 1050 TRAFFIC STOP
190626443194 6-26 13:32 400 W ASHLEY ST 13 SUSPICIOUS PERSON
190626443175 6-26 13:32 1500 S LANE AVE 28 DELIVER MESSAGE
190626443081 6-26 13:32 5300 NORWOOD AVE 68 CON GAME/FLIM FLAM
190626443136 6-26 13:31 4200 SOUTHSIDE BLVD 63 DISPUTE
190626443186 6-26 13:30 BEACH BLVD AND S UNIVERSITY BLVD 1050 TRAFFIC STOP
190626443185 6-26 13:30 9500 N REGENCY SQUARE BLVD 54 ILLEGALLY PARKED CAR
190626442929 6-26 13:30 14800 NORMANDY BLVD 10 VEHICLE THEFT
190626443149 6-26 13:29 500 NEW BRUNSWICK TER 37 UNVERIFIED 911 CALL
190626443178 6-26 13:29 3600 MYRA ST 1066 CANCEL
190626443180 6-26 13:27 S LANE AVE AND NORMANDY BLVD 1050 TRAFFIC STOP
190626443148 6-26 13:26 700 DUVAL STATION RD 37 UNVERIFIED 911 CALL
190626443118 6-26 13:26 2700 SRA1A 95T FRAUD/FORGED (CHECK, ID, RX) (TELESERVE)
190626443176 6-26 13:26 W 45TH ST AND MONCRIEF RD 4 AUTO CRASH
190626443079 6-26 13:25 4200 KINGSBURY ST 9 THEFT
190626443173 6-26 13:25 295S/DUNN AVE 11 ABANDONED VEHICLE
190626442971 6-26 13:24 8600 LEM TURNER RD 14B VANDALISM BUSINESS
190626442927 6-26 13:23 2100 W 16TH ST 21R BURGLARY RESIDENCE
190626443151 6-26 13:23 10200 RIVER MARSH DR 9J THEFT JUST OCCURRED
190626443122 6-26 13:23 9300 ATLANTIC BLVD 13 SUSPICIOUS PERSON
190626443143 6-26 13:23 7400 S DEEPWOOD DR 50 FOUND/ABANDONED PROPERTY
190626443165 6-26 13:22 100 N BUCKMAN BRG 39 WATER/VESSEL ACCIDENT
190626443163 6-26 13:20 8000 PHILIPS HWY 4 AUTO CRASH
190626443160 6-26 13:19 3200 UNIVERSITY BLVD 63 DISPUTE
190626443145 6-26 13:19 1400 CASSAT AVE 27 MENTALLY ILL PERSON
190626443065 6-26 13:19 8800 BEACH BLVD 9J THEFT JUST OCCURRED
190626443129 6-26 13:17 5400 SHENANDOAH AVE 9 THEFT
190626443158 6-26 13:17 4900 GATE PKWY 4 53 TRAFFIC CRASH PERSON INJURED
190626443157 6-26 13:17 BEACH BLVD AND S UNIVERSITY BLVD 1050 TRAFFIC STOP
190626443141 6-26 13:17 ATLANTIC BLVD AND REGENCY COURT AP 4 53 TRAFFIC CRASH PERSON INJURED
190626443133 6-26 13:17 4600 MONCRIEF RD 63 DISPUTE
190626443155 6-26 13:17 4200 ROOSEVELT BLVD 4 AUTO CRASH
190626443156 6-26 13:16 6700 PHILIPS HWY 96 ASSIST MOTORIST
190626443154 6-26 13:16 BAYMEADOWS WAY AND CYPRESS PLAZA DR 1050 TRAFFIC STOP
190626443125 6-26 13:12 3700 W UNIVERSITY BLVD 63 DISPUTE
190626443043 6-26 13:12 8500 WESTSIDE INDUSTRIAL DR 9 THEFT
190626443053 6-26 13:11 1100 W 18TH ST 22 DOMESTIC
190626442954 6-26 13:10 2000 PALAFOX ST 63 DISPUTE
190626443134 6-26 13:09 4000 EDGEWOOD DR 11 ABANDONED VEHICLE
190626443135 6-26 13:09 12700 FLAGLER CENTER BLVD 13 SUSPICIOUS PERSON
190626443131 6-26 13:08 100 W UNION ST 60 SUICIDE OR ATTEMPT
190626443127 6-26 13:07 2500 SPRING POND LN 60 SUICIDE OR ATTEMPT
190626443132 6-26 13:07 S LANE AVE AND HYDE GROVE AVE 1050 TRAFFIC STOP
190626443106 6-26 13:06 3400 DUNN AVE 27 MENTALLY ILL PERSON
190626443119 6-26 13:05 9300 S OLD KINGS RD 54 ILLEGALLY PARKED CAR
190626443109 6-26 13:04 2900 VERN DR 76 ASSIST OTHER AGENCY
190626443120 6-26 13:04 E I10 EXPWY AND S US 301 HWY 96 ASSIST MOTORIST
190626443040 6-26 13:04 300 NAUGATUCK DR 76 ASSIST OTHER AGENCY
190626443099 6-26 13:00 8000 MERRILL RD 4 AUTO CRASH
190626443105 6-26 12:59 6800 VAN GUNDY RD 76 ASSIST OTHER AGENCY
190626443107 6-26 12:59 4000 DUNN AVE 63 DISPUTE
190626443103 6-26 12:58 COLLINS RD AND PARRAMORE RD 4 53 TRAFFIC CRASH PERSON INJURED
190626443063 6-26 12:57 5200 NORWOOD AVE 63 DISPUTE
190626442987 6-26 12:57 7500 SHINDLER DR 6388 DISPUTE WITH ASSAULT
190626443102 6-26 12:56 SRA1A AND WONDERWOOD DR 11 ABANDONED VEHICLE
190626442622 6-26 12:56 5300 SOUTEL DR 68 CON GAME/FLIM FLAM
190626443100 6-26 12:55 2800 N EDGEWOOD AVE 1050 TRAFFIC STOP
190626443094 6-26 12:55 4800 TORRINGTON PL 1066 CANCEL
190626443051 6-26 12:54 5600 W BEAVER ST 63 DISPUTE
190626443097 6-26 12:53 N I95 EXPWY AND ACOSTA EXPWY 1050 TRAFFIC STOP
190626442862 6-26 12:52 1600 W 45TH ST 63 DISPUTE
190626443069 6-26 12:52 2900 W BEAVER ST 63 DISPUTE
190626443091 6-26 12:51 7600 COLLINS RD 95 FRAUD/FORGED (CHECK, ID, RX)
190626443090 6-26 12:51 RIVERSIDE AVE AND STONEWALL ST 4 AUTO CRASH
190626442936 6-26 12:51 2200 E FALLEN TREE DR 21C BURGLARY CONVEYANCE
190626443084 6-26 12:48 6000 BEACH BLVD 76 ASSIST OTHER AGENCY
190626443086 6-26 12:48 LUNA ST AND LENOX AVE 1050 TRAFFIC STOP
190626443067 6-26 12:47 5100 NORMANDY BLVD 9 THEFT
190626443083 6-26 12:47 10400 N BUSCH DR 63 DISPUTE
190626443004 6-26 12:46 7700 PLANTATION BAY DR 63 DISPUTE
190626443058 6-26 12:45 7000 GREENFERN LN 3 HIT AND RUN CRASH
190626443078 6-26 12:44 E I10 EXPWY AND S I295 EXPWY 96 ASSIST MOTORIST
190626443074 6-26 12:44 8300 W COPPERFIELD CIR 3 HIT AND RUN CRASH
190626443041 6-26 12:44 8000 MERRILL RD 95T FRAUD/FORGED (CHECK, ID, RX) (TELESERVE)
190626443077 6-26 12:44 6900 TREE FROG CT 4 53 TRAFFIC CRASH PERSON INJURED
190626443072 6-26 12:44 9500 S PRINCETON SQUARE BLVD 76 ASSIST OTHER AGENCY
190626443011 6-26 12:43 2000 JAMMES RD 22 DOMESTIC
190626443017 6-26 12:43 6900 FUEGUS DR 76 ASSIST OTHER AGENCY
190626443062 6-26 12:43 10500 MONACO DR 63 DISPUTE
190626443080 6-26 12:42 300 PALMETTO ST 96 ASSIST MOTORIST
190626442966 6-26 12:41 1000 GOLFAIR BLVD 63 DISPUTE
190626443066 6-26 12:40 2100 DOCTOR ROY BAKER ST 63 DISPUTE
190626442976 6-26 12:39 2600 N OLD MIDDLEBURG RD 9J THEFT JUST OCCURRED
190626443047 6-26 12:39 1000 W ODESSA DR 63 DISPUTE
190626442855 6-26 12:37 5800 HOLLYHOCK RD 88 ASSAULT
190626443059 6-26 12:36 4800 TOWN CENTER PKWY 1066 CANCEL
190626442925 6-26 12:33 2700 N MAIN ST 10 VEHICLE THEFT
190626443030 6-26 12:32 6600 SEABOARD AVE 63 DISPUTE
190626443056 6-26 12:32 EN 1066 CANCEL
190626443054 6-26 12:31 EN 1050 TRAFFIC STOP
190626443034 6-26 12:30 1500 N JEFFERSON ST 1066 CANCEL
190626443019 6-26 12:30 1500 FAYE RD 95ID IDENTITY THEFT
190626443050 6-26 12:30 S I295 EXPWY AND PRITCHARD RD 3 HIT AND RUN CRASH
190626442967 6-26 12:29 9700 BEACH BLVD 95 FRAUD/FORGED (CHECK, ID, RX)
190626443046 6-26 12:28 LEM TURNER RD AND CAPPER RD 4 AUTO CRASH
190626443045 6-26 12:28 900 DUNN AVE 38 TRAFFIC ASSIGNMENT
190626443013 6-26 12:27 10300 W JOLYNN CT 27 MENTALLY ILL PERSON
190626442985 6-26 12:27 500 S LANE AVE 63 DISPUTE
190626442930 6-26 12:27 200 S LANE AVE 63 DISPUTE
190626443035 6-26 12:26 500 S CHAFFEE RD 2288 DOMESTIC DISPUTE WITH/ASSAULT
190626443037 6-26 12:26 300 BRUNSWICK RD 76 ASSIST OTHER AGENCY
190626443038 6-26 12:26 12100 YELLOW BLUFF RD 1050 TRAFFIC STOP
190626442959 6-26 12:25 200 S EDGEWOOD AVE 9T THEFT (TELESERVE)
190626443028 6-26 12:22 500 W 8TH ST 4 AUTO CRASH
190626443012 6-26 12:21 S I95 EXPWY AND PARK ST 68 CON GAME/FLIM FLAM
190626443026 6-26 12:20 SOUTHSIDE BLVD AND J TURNER BUTLER BLVD 11 ABANDONED VEHICLE
190626443010 6-26 12:20 9100 MERRILL RD 54 ILLEGALLY PARKED CAR
190626443024 6-26 12:20 SS/JTB 96 ASSIST MOTORIST
190626442871 6-26 12:20 5500 SOUTEL DR 22 DOMESTIC
190626443022 6-26 12:19 10800 E CROSSTIE RD 1066 CANCEL
190626443018 6-26 12:18 E I10 EXPWY AND STOCKTON ST 16 ROAD OBSTRUCTION
190626443016 6-26 12:17 9800 EASTPORT RD 1050 TRAFFIC STOP
190626442995 6-26 12:16 5900 MONCRIEF RD 63 DISPUTE
190626443009 6-26 12:15 4600 MONCRIEF RD 54 ILLEGALLY PARKED CAR
190626443003 6-26 12:13 11300 BUSINESS PARK BLVD 4 AUTO CRASH
190626443001 6-26 12:12 ARLINGTON EXPWY AND ATLANTIC BLVD 16 ROAD OBSTRUCTION
190626443000 6-26 12:11 295/BEACH 68 CON GAME/FLIM FLAM
190626442983 6-26 12:10 5600 BOWDEN RD 4 AUTO CRASH
190626442994 6-26 12:10 1100 AKE LN 63 DISPUTE
190626442997 6-26 12:10 7000 W KEN KNIGHT DR 1050 TRAFFIC STOP
190626442991 6-26 12:09 100 S FULLER WARREN BRG 16 ROAD OBSTRUCTION
190626442982 6-26 12:09 600 LINWOOD AVE 22 DOMESTIC
190626442978 6-26 12:08 3000 W 6TH ST 22 DOMESTIC
190626442970 6-26 12:08 9300 ATLANTIC BLVD 13 SUSPICIOUS PERSON
190626442988 6-26 12:07 7900 MERRILL RD 96 ASSIST MOTORIST
190626442981 6-26 12:04 POST ST AND NELSON ST 1050 TRAFFIC STOP
190626442919 6-26 12:02 3400 PHILIPS HWY 50 FOUND/ABANDONED PROPERTY
190626442739 6-26 12:02 5500 COLLINS RD 63 DISPUTE
190626442973 6-26 12:01 2700 MARTHA ST 5388 ASSAULT INVOLVING INJURY
190626442972 6-26 12:00 S LANE AVE AND LENOX AVE 1050 TRAFFIC STOP
190626442894 6-26 11:59 5300 NORMANDY BLVD 63 DISPUTE
190626442969 6-26 11:59 W 13TH ST AND N MYRTLE AVE 1050 TRAFFIC STOP
190626442965 6-26 11:58 1000 PARK ST 68 CON GAME/FLIM FLAM
190626442957 6-26 11:58 6100 CEDAR HILLS BLVD 16 ROAD OBSTRUCTION
190626442787 6-26 11:57 14000 LUMBERTON FALLS DR 95ID IDENTITY THEFT
190626442589 6-26 11:57 PRITCHARD RD AND IMESON RD 91 TRAFFIC LIGHT/RR CROSSING MALFUNCTION
190626442901 6-26 11:57 4500 W MELVIN CIR 21C BURGLARY CONVEYANCE
190626442964 6-26 11:56 N I295 EXPWY AND SAN JOSE BLVD 96 ASSIST MOTORIST
190626442909 6-26 11:56 3500 UNIVERSITY BLVD 21CT BURGLARY CONVEYANCE TELESERVE
190626442960 6-26 11:55 ATLANTIC BLVD AND SOUTHSIDE BLVD 16 ROAD OBSTRUCTION
190626442956 6-26 11:53 1900 ROWE AVE 38 TRAFFIC ASSIGNMENT
190626442941 6-26 11:53 8300 FREEDOM CROSSING TRL 63 DISPUTE
190626442863 6-26 11:51 1900 KINGS RD 9 THEFT
190626442872 6-26 11:49 9900 PATRIOT RIDGE DR 21CT BURGLARY CONVEYANCE TELESERVE
190626442896 6-26 11:47 1000 S MCDUFF AVE 63 DISPUTE
190626442913 6-26 11:47 S WESTBROOK CIR AND W WESTBROOK CIR 11 ABANDONED VEHICLE
190626442856 6-26 11:46 11900 ATLANTIC BLVD 86 LOST PROPERTY
190626442751 6-26 11:45 5800 BEACH BLVD 63 DISPUTE
190626442920 6-26 11:44 200 E U S 90 HWY 76 ASSIST OTHER AGENCY
190626442819 6-26 11:44 1800 W 45TH ST 13 SUSPICIOUS PERSON
190626442943 6-26 11:43 STUART AVE AND S LANE AVE 13 SUSPICIOUS PERSON
190626442935 6-26 11:42 SOUTHSIDE BLVD AND IVEY RD 16 ROAD OBSTRUCTION
190626442921 6-26 11:42 1000 SUPERIOR ST 35 OFFICER NEEDS ASSIST
190626442912 6-26 11:40 SOUTEL DR AND CLYDE DR 4 53 TRAFFIC CRASH PERSON INJURED
190626442932 6-26 11:36 5800 ATLANTIC BLVD 4 AUTO CRASH
190626442882 6-26 11:32 100 ICW BEACH BRG 13 SUSPICIOUS PERSON
190626442885 6-26 11:31 8500 WESTERN WAY 3 HIT AND RUN CRASH
190626442822 6-26 11:30 5700 SPRING PARK RD 63 DISPUTE
190626442854 6-26 11:30 5100 INDIAN LAKES CT 9T THEFT (TELESERVE)
190626442922 6-26 11:29 700 VENUS-MARS CT 5388 ASSAULT INVOLVING INJURY
190626442818 6-26 11:29 7900 103RD ST 22 DOMESTIC
190626442867 6-26 11:28 14700 FALLING WATERS DR 22 DOMESTIC
190626442815 6-26 11:28 E 58TH ST AND BLOXHAM AVE 13 SUSPICIOUS PERSON
190626442836 6-26 11:27 3100 SUNNYBROOK CT 21C BURGLARY CONVEYANCE
190626442915 6-26 11:26 400 S LANE AVE 63 DISPUTE
190626442918 6-26 11:26 BEACH BLVD AND N I295 EXPWY 13 SUSPICIOUS PERSON
190626442847 6-26 11:25 W EVE DR AND BEACH BLVD 54 ILLEGALLY PARKED CAR
190626442908 6-26 11:25 1800 ROGERO RD 4 AUTO CRASH
190626442891 6-26 11:25 1400 DELMAR ST 63 DISPUTE
190626442911 6-26 11:24 1600 N LIBERTY ST 54 ILLEGALLY PARKED CAR
190626442906 6-26 11:23 500 E ADAMS ST 50 FOUND/ABANDONED PROPERTY
190626442849 6-26 11:23 5600 EDENFIELD RD 63 DISPUTE
190626442892 6-26 11:22 2800 UNIVERSITY BLVD 37 UNVERIFIED 911 CALL
190626442765 6-26 11:22 9100 BAYMEADOWS RD 70 COUNTERFEIT
190626442795 6-26 11:20 4500 W MELISSA CT 21C BURGLARY CONVEYANCE
190626442893 6-26 11:19 SAN JOSE BLVD AND BAYMEADOWS RD 88J ASSAULT JUST OCCURRED
190626442870 6-26 11:19 3200 DONHURST ST 11 ABANDONED VEHICLE
190626442808 6-26 11:18 3500 UNIVERSITY BLVD 21CT BURGLARY CONVEYANCE TELESERVE
190626442728 6-26 11:16 100 W 21ST ST 22 DOMESTIC
190626442824 6-26 11:15 4400 KENNEDY CT 19 ANIMAL INVESTIGATION
190626442853 6-26 11:14 10700 ATLANTIC BLVD 22 DOMESTIC
190626442883 6-26 11:13 200 W UNION ST 13 SUSPICIOUS PERSON
190626442797 6-26 11:12 5000 SHIRLEY AVE 19 ANIMAL INVESTIGATION
190626442846 6-26 11:12 3300 GUERNSEY CT 13 SUSPICIOUS PERSON
190626442880 6-26 11:12 500 LANE AVE S 63 DISPUTE
190626442874 6-26 11:12 ARLINGTON RD AND DOUGLAS ST 29 WIRE DOWN
190626442875 6-26 11:11 15200 MAX LEGGETT PKWY 38 TRAFFIC ASSIGNMENT
190626442794 6-26 11:10 INGLESIDE AVE AND HERSCHEL ST 54 ILLEGALLY PARKED CAR
190626442789 6-26 11:10 10200 MEADOW POINT DR 9 THEFT
190626442868 6-26 11:10 2000 MAYPORT RD 63 DISPUTE
190626442869 6-26 11:10 5600 SEABOARD AVE 76 ASSIST OTHER AGENCY
190626442865 6-26 11:08 1000 BROWARD RD 50 FOUND/ABANDONED PROPERTY
190626442858 6-26 11:08 N OLD MIDDLEBURG RD AND MEMORIAL PARK RD 4 AUTO CRASH
190626442860 6-26 11:07 600 BEECHWOOD ST 60 SUICIDE OR ATTEMPT
190626442839 6-26 11:05 8100 ODEN AVE 63 DISPUTE
190626442851 6-26 11:03 N LIBERTY ST AND E ASHLEY ST 60 SUICIDE OR ATTEMPT
190626442742 6-26 11:02 S LANE AVE AND STUART AVE 27 MENTALLY ILL PERSON
190626442784 6-26 11:00 5900 ARLINGTON EXPWY 76 ASSIST OTHER AGENCY
190626442837 6-26 11:00 13200 CITY STATION DR 109 6388 DISPUTE WITH ASSAULT
190626442842 6-26 11:00 3500 S ST JOHNS BLUFF RD 76 ASSIST OTHER AGENCY
190626442783 6-26 10:59 1500 INGLESIDE AVE 63 DISPUTE
190626442841 6-26 10:59 HARTS RD AND S TURTLE CREEK DR 1050 TRAFFIC STOP
190626442791 6-26 10:59 800 BONAPARTE LANDING CT 95IDT IDENTITY THEFT TELESERVE
190626442724 6-26 10:58 8000 LEXINGTON DR 9T THEFT (TELESERVE)
190626442831 6-26 10:58 11000 N OAK RIDGE DR 11 ABANDONED VEHICLE
190625440146 6-26 10:55 5500 NEW KINGS RD 54 ILLEGALLY PARKED CAR
190626442826 6-26 10:54 200 SANWICK DR 63 DISPUTE
190626442825 6-26 10:52 400 E ASHLEY ST 13 SUSPICIOUS PERSON
190626442730 6-26 10:52 300 GOLFAIR BLVD 88J ASSAULT JUST OCCURRED
190626442820 6-26 10:52 7000 MERRILL RD 3 HIT AND RUN CRASH
190626442823 6-26 10:52 UNIVERSITY BLVD AND ARLINGTON EXPWY 10R VEHICLE THEFT RECOVERY
190626442793 6-26 10:51 7900 NEVADA ST 21R BURGLARY RESIDENCE
190626442813 6-26 10:51 4800 W DEER LAKE DR 3 HIT AND RUN CRASH
190626442646 6-26 10:50 3500 S UNIVERSITY BLVD 9 THEFT
190626442816 6-26 10:49 BEACH/DEAN 1050 TRAFFIC STOP
190626442810 6-26 10:49 4400 VERONA AVE 76 ASSIST OTHER AGENCY
190626442796 6-26 10:48 100 W ADAMS ST 4 AUTO CRASH
190626442806 6-26 10:47 ARLINGTON RD AND SPRINKLE DR 29 WIRE DOWN
190626442804 6-26 10:46 E I10 EXPWY AND CASSAT AVE 1050 TRAFFIC STOP
190626442800 6-26 10:45 ARLINGTON RD AND CESERY BLVD 29 WIRE DOWN
190626442673 6-26 10:41 2100 W 40TH ST 27 MENTALLY ILL PERSON
190626442711 6-26 10:40 5400 CARDAN RD 21R BURGLARY RESIDENCE
190626442761 6-26 10:39 9500 ATLANTIC BLVD 63 DISPUTE
190626442777 6-26 10:38 6100 YOUNGERMAN CIR 0 60 SUICIDE THREAT W/WEAPON
190626442741 6-26 10:37 1600 WINTHROP ST 19 ANIMAL INVESTIGATION
190626442720 6-26 10:37 4200 SAN JUAN AVE 63 DISPUTE
190626442776 6-26 10:37 DEERWOOD CAMPUS PKWY AND N GATE PKWY 4 AUTO CRASH
190626442771 6-26 10:37 W DEER LAKE DR AND N GATE PKWY 4 AUTO CRASH
190626442565 6-26 10:36 7600 COLLINS RD 9 THEFT
190626442782 6-26 10:36 COMMONWEALTH AVE AND WOODSTOCK AVE 1050 TRAFFIC STOP
190626442779 6-26 10:36 HORNETS NEST RD AND HOOD RD 52 ILLEGAL DUMPING
190626442769 6-26 10:35 7100 MERRILL RD 5388 ASSAULT INVOLVING INJURY
190626442775 6-26 10:34 WILEY RD AND N OLD MIDDLEBURG RD 1050 TRAFFIC STOP
190626442768 6-26 10:33 2900 SUNSET LANDING DR 76 ASSIST OTHER AGENCY
190626442766 6-26 10:33 FOURAKER RD AND NORMANDY BLVD 4 53 TRAFFIC CRASH PERSON INJURED
190626442762 6-26 10:32 13000 N BIRCH BARK CT 21C BURGLARY CONVEYANCE
190626442703 6-26 10:32 9400 ARLINGTON EXPWY 63 DISPUTE
190626442746 6-26 10:32 2100 N EDGEWOOD AVE 56 JUVENILE COMPLAINT
190626442764 6-26 10:31 500 S EDGE 1050 TRAFFIC STOP
190626442755 6-26 10:31 2100 DUNN AVE 96 ASSIST MOTORIST
190626442763 6-26 10:31 6300 FIRESTONE RD 1050 TRAFFIC STOP
190626442704 6-26 10:29 8800 BEACH BLVD 63 DISPUTE
190626442758 6-26 10:28 1200 KNOBB HILL DR 60 SUICIDE OR ATTEMPT
190626442757 6-26 10:27 11000 HARTS RD 1050 TRAFFIC STOP
190626442753 6-26 10:26 SRA1A AND WONDERWOOD DR 4 53 TRAFFIC CRASH PERSON INJURED
190626442754 6-26 10:25 8000 MERRILL RD 54 ILLEGALLY PARKED CAR
190626442750 6-26 10:23 500 E BAY ST 86 LOST PROPERTY
190626442738 6-26 10:23 HOUSTON ST AND N LEE ST 63 DISPUTE
190626442715 6-26 10:23 E BAY ST AND S OCEAN ST 13 SUSPICIOUS PERSON
190626442749 6-26 10:22 PHILIPS HWY AND SHAD RD 1050 TRAFFIC STOP
190626442748 6-26 10:22 MERR/UNIVER 1050 TRAFFIC STOP
190626442617 6-26 10:21 6700 RENEE TER 27 MENTALLY ILL PERSON
190626442737 6-26 10:20 BAYMEADOWS RD AND OLD BAYMEADOWS RD 16 ROAD OBSTRUCTION
190626442740 6-26 10:19 COMMONWEALTH AVE AND REYNOLDS LN 1050 TRAFFIC STOP
190626442732 6-26 10:19 N I95 EXPWY AND EMERSON ST 16 ROAD OBSTRUCTION
190626442686 6-26 10:19 10900 BAYMEADOWS RD 63 DISPUTE
190626442734 6-26 10:18 5100 118TH ST 5388 ASSAULT INVOLVING INJURY
190626442691 6-26 10:17 8100 SISKIN AVE 11 ABANDONED VEHICLE
190626442708 6-26 10:17 13400 BEACH BLVD 63 DISPUTE
190626442733 6-26 10:17 500 S EDGEWOOD AVE 1050 TRAFFIC STOP
190626442719 6-26 10:16 1200 INGLESIDE AVE 21C BURGLARY CONVEYANCE
190626442723 6-26 10:15 2400 SOUTEL DR 8 27 MISSING MENTALLY ILL
190626442469 6-26 10:14 1200 E 32ND ST 21C BURGLARY CONVEYANCE
190626442685 6-26 10:14 2600 S ST JOHNS BLUFF RD 63 DISPUTE
190626442640 6-26 10:11 10100 N GATE PKWY 21CT BURGLARY CONVEYANCE TELESERVE
190626442710 6-26 10:08 5100 COLLINS RD 1066 CANCEL
190626442712 6-26 10:08 700 VENUS-MARS CT 22 DOMESTIC
190626442654 6-26 10:08 5400 SHENANDOAH AVE 19 ANIMAL INVESTIGATION
190626442706 6-26 10:07 N EDGEWOOD AVE AND W 20TH ST 16 ROAD OBSTRUCTION
190626442709 6-26 10:06 S LANE AVE AND RAMONA BLVD 13 SUSPICIOUS PERSON
190626442655 6-26 10:04 400 N LEE ST 4 AUTO CRASH
190626442700 6-26 10:03 CORTEZ RD AND S BROOKVIEW DR 22 DOMESTIC
190626442699 6-26 10:02 9400 ATLANTIC BLVD 13 SUSPICIOUS PERSON
190626442697 6-26 10:01 11000 HARTS RD 1050 TRAFFIC STOP
190626442696 6-26 10:01 1100 DUNN AVE 54 ILLEGALLY PARKED CAR
190626442689 6-26 10:01 10900 BAYMEADOWS RD 63 DISPUTE
190626442532 6-26 10:01 1500 S LANE AVE 10 VEHICLE THEFT
190626442676 6-26 10:00 15700 SPOTTED SADDLE CIR 63 DISPUTE
190626442679 6-26 09:59 1600 MARGARET ST 77 WELL BEING CHECK
190626442678 6-26 09:55 6100 LAKE GRAY BLVD 3 HIT AND RUN CRASH
190626442635 6-26 09:55 13100 HACKBERRY WAY 21CT BURGLARY CONVEYANCE TELESERVE
190626442590 6-26 09:54 5300 WOODCREST RD 27 MENTALLY ILL PERSON
190626442675 6-26 09:53 1000 S US 301 HWY 4 AUTO CRASH
190626442668 6-26 09:53 WHIPPOORWILL LN AND SOUTHSIDE BLVD 12 RECKLESS DRIVER
190626442672 6-26 09:52 2700 MONUMENT RD 54 ILLEGALLY PARKED CAR
190626442670 6-26 09:52 2300 JERNIGAN RD 52 ILLEGAL DUMPING
190626442656 6-26 09:51 700 ASSISI LN 1066 CANCEL
190626442667 6-26 09:50 800 S EDGEWOOD AVE 1050 TRAFFIC STOP
190626442664 6-26 09:48 7700 118TH ST 1050 TRAFFIC STOP
190626442607 6-26 09:48 5100 MCMANUS DR 63 DISPUTE
190626442642 6-26 09:47 3900 SPRING PARK RD 27 MENTALLY ILL PERSON
190626442659 6-26 09:47 900 BERTHA ST 1050 TRAFFIC STOP
190626442658 6-26 09:47 8100 BLANDING BLVD 96 ASSIST MOTORIST
190626442608 6-26 09:47 3100 N BLUE HERON DR 63 DISPUTE
190626442625 6-26 09:46 10000 HAWKS HOLLOW RD 2288 DOMESTIC DISPUTE WITH/ASSAULT
190626442614 6-26 09:45 8800 E REDTAIL DR 22 DOMESTIC
190626442651 6-26 09:44 500 W STATE ST 76 ASSIST OTHER AGENCY
190626442639 6-26 09:43 1300 N MAIN ST 60 SUICIDE OR ATTEMPT
190626442648 6-26 09:43 S LANE AVE AND W BEAVER ST 1050 TRAFFIC STOP
190626442549 6-26 09:42 11000 BEACH BLVD 63 DISPUTE
190626442645 6-26 09:42 I295/ALTA 1050 TRAFFIC STOP
190626442618 6-26 09:42 4800 FRENCH ST 21B BURGLARY BUSINESS
190626442638 6-26 09:40 500 WONDERWOOD DR 63 DISPUTE
190626442631 6-26 09:39 J TURNER BUTLER BLVD AND HODGES BLVD 16 ROAD OBSTRUCTION
190626442630 6-26 09:37 11000 HARTS 1050 TRAFFIC STOP
190626442627 6-26 09:37 118TH ST AND RICKER RD 1050 TRAFFIC STOP
190626442626 6-26 09:36 700 S EDGEWOOD AVE 1050 TRAFFIC STOP
190626442623 6-26 09:34 MERRILL RD AND UNIVERSITY BLVD 1050 TRAFFIC STOP
190626442597 6-26 09:34 ARLINGTON EXPWY AND MARTIN LUTHER KING JR PKWY 4 AUTO CRASH
190626442536 6-26 09:34 6700 YVONNE LN 22 DOMESTIC
190626442503 6-26 09:34 8800 COCOA AVE 14B VANDALISM BUSINESS
190626442619 6-26 09:33 1800 JOHNSON ST 22 DOMESTIC
190626442620 6-26 09:33 5100 TIMUQUANA RD 1050 TRAFFIC STOP
190626442616 6-26 09:32 9000 ARGYLE FOREST BLVD 1050 TRAFFIC STOP
190626442598 6-26 09:31 3600 SPRING PARK RD 50 FOUND/ABANDONED PROPERTY
190626442612 6-26 09:30 7500 118TH ST 1050 TRAFFIC STOP
190626442606 6-26 09:30 10900 BEACH BLVD 3 HIT AND RUN CRASH
190626442586 6-26 09:29 2700 RIVERSIDE AVE 63 DISPUTE
190626442530 6-26 09:28 2000 LEWIS ST 21B BURGLARY BUSINESS
190626442492 6-26 09:28 5900 ARLINGTON EXPWY 76 ASSIST OTHER AGENCY
190626442572 6-26 09:28 1100 N EDGEWOOD AVE 9T THEFT (TELESERVE)
190626442524 6-26 09:27 400 MONUMENT RD 95 FRAUD/FORGED (CHECK, ID, RX)
190626442600 6-26 09:25 7800 SOUTHSIDE BLVD 3 HIT AND RUN CRASH
190626442505 6-26 09:24 9000 EATON AVE 63 DISPUTE
190626442603 6-26 09:24 900 S EDGEWOOD AVE 1050 TRAFFIC STOP
190626442578 6-26 09:20 HARTXEXIT SHDWD RP AND SHADOWOOD LN 0 13 ARMED SUSPICIOUS PERSON
190626442438 6-26 09:20 1600 E 23RD ST 21C BURGLARY CONVEYANCE
190626442588 6-26 09:19 9000 SAN JOSE BLVD 63 DISPUTE
190626442591 6-26 09:18 900 BERTHA ST 1050 TRAFFIC STOP
190626442587 6-26 09:17 6500 RICKER RD 1050 TRAFFIC STOP
190626442527 6-26 09:16 2100 ZOO PKWY 37 UNVERIFIED 911 CALL
190626442585 6-26 09:14 7600 W ERINWOOD CT 33 DISCHARGING OF FIREARM
190626442581 6-26 09:14 E 1ST ST AND FULLER LN 11 ABANDONED VEHICLE
190626442584 6-26 09:13 8600 BLANDING BLVD 1066 CANCEL
190626442416 6-26 09:13 4400 JONES RD 10R VEHICLE THEFT RECOVERY
190626442583 6-26 09:11 9000 ARGYLE FOREST BLVD 1050 TRAFFIC STOP
190626442553 6-26 09:09 7900 NORMANDY BLVD 9J THEFT JUST OCCURRED
190626442542 6-26 09:09 6800 NORMANDY BLVD 5582 HOLDING ONE FOR SHOPLIFTING
190626442573 6-26 09:07 5100 TIMUQUANA RD 1050 TRAFFIC STOP
190626442564 6-26 09:06 8100 BLANDING BLVD 16 ROAD OBSTRUCTION
190626442512 6-26 09:04 6800 WILSON BLVD 13 SUSPICIOUS PERSON
190626442507 6-26 09:04 JAMMES RD AND SAN JUAN AVE 13 SUSPICIOUS PERSON
190626442563 6-26 09:03 1100 INGLESIDE AVE 3 HIT AND RUN CRASH
190626442509 6-26 09:02 100 LAWTON AVE 14CT VANDALISM CONVEYANCE TELESERVE
190626442473 6-26 09:01 10100 INTERSTATE CENTER DR 14C VANDALISM CONVEYANCE
190626442545 6-26 09:00 15500 FLOUNDER RD 63 DISPUTE
190626442559 6-26 08:59 800 TURTLE CREEK 1050 TRAFFIC STOP
190626442557 6-26 08:59 E I10 EXPWY AND STOCKTON ST 4 AUTO CRASH
190626442556 6-26 08:59 WINONA DR AND EVERGREEN AVE 4 53 TRAFFIC CRASH PERSON INJURED
190626442547 6-26 08:57 MARTIN LUTHER KING JR PKWY AND PHOENIX AVE 16 ROAD OBSTRUCTION
190626442552 6-26 08:56 9000 ARGYLE FOREST BLVD 1050 TRAFFIC STOP
190626442546 6-26 08:55 GROTHE ST AND BARNETT ST 76 ASSIST OTHER AGENCY
190626442544 6-26 08:55 BEACH BLVD AND S UNIVERSITY BLVD 16 ROAD OBSTRUCTION
190626442548 6-26 08:54 1800 INDIA 1050 TRAFFIC STOP
190626442534 6-26 08:51 1900 W 20TH ST 21R BURGLARY RESIDENCE
190626442495 6-26 08:50 S ELLIS RD AND LENOX AVE 76 ASSIST OTHER AGENCY
190626442531 6-26 08:46 TIMUQUANA RD AND ORTEGA FARMS BLVD 1050 TRAFFIC STOP
190626442459 6-26 08:45 4100 SOUTHSIDE BLVD 21B BURGLARY BUSINESS
190626442523 6-26 08:44 7900 103RD ST 76 ASSIST OTHER AGENCY
190626442460 6-26 08:44 5900 BEACH BLVD 68 CON GAME/FLIM FLAM
190626442519 6-26 08:43 11000 HAR 1050 TRAFFIC STOP
190626442463 6-26 08:42 200 W FORSYTH ST 63 DISPUTE
190626442517 6-26 08:42 IMESON RD AND W MONCRIEF RD 1050 TRAFFIC STOP
190626442516 6-26 08:41 1600 INDIAN SPRING 1050 TRAFFIC STOP
190626442489 6-26 08:39 10700 JAVA DR 63 DISPUTE
190626442510 6-26 08:39 MARTIN LUTHER KING JR PKWY AND E 8TH ST 13 SUSPICIOUS PERSON
190626442504 6-26 08:38 300 W 18TH ST 63 DISPUTE
190626442422 6-26 08:37 2000 HUGH EDWARDS DR 21CT BURGLARY CONVEYANCE TELESERVE
190626442483 6-26 08:34 2600 N OLD MIDDLEBURG RD 1066 CANCEL
190626442481 6-26 08:34 10700 PINHOLSTER RD 63 DISPUTE
190626442501 6-26 08:33 11300 HARTS RD 1050 TRAFFIC STOP
190626442449 6-26 08:33 900 E CARLOTTA RD 14 VANDALISM
190626442499 6-26 08:32 1000 UNIVERSITY BLVD 76 ASSIST OTHER AGENCY
190626442477 6-26 08:32 BASSWOOD ST AND N PEARL ST 54 ILLEGALLY PARKED CAR
190626442494 6-26 08:31 4000 BROOKV DR N 1050 TRAFFIC STOP
190626442490 6-26 08:30 5200 TIMUQUANA RD 1050 TRAFFIC STOP
190626442487 6-26 08:29 400 LIME ST 63 DISPUTE
190626442488 6-26 08:29 NORMANDY BLVD AND MEMORIAL PARK RD 1050 TRAFFIC STOP
190626442414 6-26 08:28 10300 CATHY RD 63 DISPUTE
190626442358 6-26 08:28 BRADLEY COVE RD AND E SUMMER BREEZE DR 50 FOUND/ABANDONED PROPERTY
190626442484 6-26 08:27 11000 HARTS RD 1050 TRAFFIC STOP
190626442482 6-26 08:27 1800 INDIAN SPRINGS DR 1050 TRAFFIC STOP
190626442480 6-26 08:26 W BEAVER ST AND S EDGEWOOD AVE 4 53 TRAFFIC CRASH PERSON INJURED
190626442476 6-26 08:25 CASSAT AVE AND LENOX AVE 4 AUTO CRASH
190626442478 6-26 08:24 S I295 EXPWY AND ATLANTIC BLVD 4 AUTO CRASH
190626442429 6-26 08:24 4200 LAKESIDE DR 50 FOUND/ABANDONED PROPERTY
190626442392 6-26 08:23 5700 TALTON LN 63 DISPUTE
190626442470 6-26 08:22 N PEARL ST AND W 1ST ST 4 AUTO CRASH
190626442436 6-26 08:22 100 W 41ST ST 22 DOMESTIC
190626442448 6-26 08:21 BARTRAM PARK BLVD AND OLD ST AUGUSTINE RD 4 AUTO CRASH
190626442457 6-26 08:18 S I295 EXPWY AND BEACH BLVD 4 AUTO CRASH
190626442467 6-26 08:18 9800 BEACH BLVD 13 SUSPICIOUS PERSON
190626442466 6-26 08:17 NORMANDY BLVD AND MEMORIAL PARK RD 1050 TRAFFIC STOP
190626442376 6-26 08:17 13700 N GERONA DR 63 DISPUTE
190626442461 6-26 08:16 ARL/ARL 12 RECKLESS DRIVER
190626442456 6-26 08:13 SAN PABLO PKWY AND CROSSWATER BLVD 91 TRAFFIC LIGHT/RR CROSSING MALFUNCTION
190626442455 6-26 08:13 LENOX AVE AND WOODRUFF AVE 4 53 TRAFFIC CRASH PERSON INJURED
190626442453 6-26 08:12 3100 S ST JOHNS BLUFF RD 60 SUICIDE OR ATTEMPT
190626442396 6-26 08:10 800 N ST JOHNS BLUFF RD 63 DISPUTE
190626442446 6-26 08:09 500 E ADAMS ST 50 FOUND/ABANDONED PROPERTY
190626442415 6-26 08:07 1600 MARGARET ST 63 DISPUTE
190626442441 6-26 08:07 N KERNAN BLVD AND MCCORMICK RD 4 AUTO CRASH
190626442443 6-26 08:06 1700 INDIA 1050 TRAFFIC STOP
190626442399 6-26 08:05 1000 DAY AVE 21CT BURGLARY CONVEYANCE TELESERVE
190626442437 6-26 08:04 NORMANDY BLVD AND MEMORIAL PARK RD 1050 TRAFFIC STOP
190626442431 6-26 07:59 N I295 EXPWY AND J TURNER BUTLER BLVD 96 ASSIST MOTORIST
190626442426 6-26 07:59 5600 EDENFIELD RD 14R VANDALISM RESIDENCE
190626442425 6-26 07:59 100 N LAURA ST 63 DISPUTE
190626442423 6-26 07:58 1000 W 18TH ST 11 ABANDONED VEHICLE
190626442424 6-26 07:58 S I95 EXPWY AND BOWDEN RD 4 AUTO CRASH
190626442421 6-26 07:56 S I295 EXPWY AND ROOSEVELT BLVD 96 ASSIST MOTORIST
190626442418 6-26 07:55 ROGERO RD AND ARLINGTON RD 76 ASSIST OTHER AGENCY
190626442417 6-26 07:54 9500 ARLINGTON EXPWY 11 ABANDONED VEHICLE
190626442398 6-26 07:54 4000 IONIA ST 13 SUSPICIOUS PERSON
190626442378 6-26 07:53 1200 N MARKET ST 54 ILLEGALLY PARKED CAR
190626442373 6-26 07:52 7200 LONGLEAF BRANCH DR 21C BURGLARY CONVEYANCE
190626442412 6-26 07:51 MILL CREEK RD AND ARLINGTON EXPWY 4 AUTO CRASH
190626442386 6-26 07:50 700 ACOSTA ST 50 FOUND/ABANDONED PROPERTY
190626442410 6-26 07:47 BEACH BLVD AND S I295 EXPWY 4 53 TRAFFIC CRASH PERSON INJURED
190626442409 6-26 07:46 N I95 EXPWY AND MAX LEGGETT PKWY 4 53 TRAFFIC CRASH PERSON INJURED
190626442406 6-26 07:44 1700 INDIAN 1050 TRAFFIC STOP
190626442402 6-26 07:43 ATL/ANN 1050 TRAFFIC STOP
190626442380 6-26 07:43 PARK ST AND FOREST ST 16 ROAD OBSTRUCTION
190626442314 6-26 07:40 7800 S HUNTERS LAKE CIR 2288 DOMESTIC DISPUTE WITH/ASSAULT
190626442346 6-26 07:40 2300 E COMPANION CIR 21C BURGLARY CONVEYANCE
190626442395 6-26 07:39 13900 N MAIN ST 70 COUNTERFEIT
190626442388 6-26 07:38 7700 PARADISE ISLAND BLVD 54 ILLEGALLY PARKED CAR
190626442383 6-26 07:37 1300 KINGS RD 63 DISPUTE
190626442389 6-26 07:36 8200 PHILIPS HWY 2288 DOMESTIC DISPUTE WITH/ASSAULT
190626442362 6-26 07:35 4500 N PEARL ST 22 DOMESTIC
190626442381 6-26 07:35 11000 BEACH BLVD 63 DISPUTE
190626442359 6-26 07:35 14100 W CRESTWICK DR 4 AUTO CRASH
190626442375 6-26 07:35 S LANE AVE AND LONDONTOWNE LN 0 63 ARMED DISPUTE
190626442372 6-26 07:34 8600 E BAYMEADOWS RD 13 SUSPICIOUS PERSON
190626442371 6-26 07:24 1700 INDIAN SPRINGS DR 1050 TRAFFIC STOP
190626442274 6-26 07:23 4200 CONFEDERATE POINT RD 21C BURGLARY CONVEYANCE
190626442343 6-26 07:19 7700 PLANTATION BAY DR 21C BURGLARY CONVEYANCE
190626442298 6-26 07:19 7000 COLLINS RD 9 THEFT
190626442344 6-26 07:19 2100 CYPRESS LANDING DR 37 UNVERIFIED 911 CALL
190626442347 6-26 07:17 100 TALLULAH AVE 9T THEFT (TELESERVE)
190626442312 6-26 07:17 11500 SPRINGBOARD DR 86T LOST PROPERTY (TELESERVE)
190626442355 6-26 07:15 800 SKYMARKS DR 38 TRAFFIC ASSIGNMENT
190626442354 6-26 07:15 200 E 65TH ST 9 THEFT
190626442327 6-26 07:15 8800 E REDTAIL DR 22 DOMESTIC
190626442339 6-26 07:13 2400 E SUNAPEE AVE 13 SUSPICIOUS PERSON
190626442321 6-26 07:12 8300 BAYMEADOWS RD 63 DISPUTE
190626442352 6-26 07:12 100 W INDEPENDENT DR 13 SUSPICIOUS PERSON
190626442341 6-26 07:06 3600 ANTAR RIDGE LN 1066 CANCEL
190626442328 6-26 06:57 11800 S ASHBROOK CIR 63 DISPUTE
190626442334 6-26 06:56 200 E STATE ST 63 DISPUTE
190626442333 6-26 06:51 3700 SOUTEL DR 1050 TRAFFIC STOP
190626442332 6-26 06:51 100 E MATHEWS BRG 16 ROAD OBSTRUCTION
190626442313 6-26 06:49 200 N ST JOHNS BLUFF RD 22 DOMESTIC
190626442323 6-26 06:45 500 STOCKTON ST 60 SUICIDE OR ATTEMPT
190626442324 6-26 06:45 ATLANTIC BLVD AND ARLINGTON EXPWY 96 ASSIST MOTORIST
190626442308 6-26 06:41 10800 HARTS RD 37 UNVERIFIED 911 CALL
190626442320 6-26 06:41 8000 W BEAVER ST 4 53 TRAFFIC CRASH PERSON INJURED
190626442316 6-26 06:38 J TURNER BUTLER BLVD AND N I95 EXPWY 1050 TRAFFIC STOP
190626442306 6-26 06:33 S I295 EXPWY AND BAYMEADOWS RD 3 HIT AND RUN CRASH
190626442303 6-26 06:25 N I295 EXPWY AND NORMANDY BLVD 11 ABANDONED VEHICLE
190626442302 6-26 06:24 13500 RANCH RD 63 DISPUTE
190626442284 6-26 06:24 400 N LANE AVE 63 DISPUTE
190626442299 6-26 06:22 500 CYNTHIA ST 1066 CANCEL
190626442289 6-26 06:16 6100 YOUNGERMAN CIR 4 AUTO CRASH
190626442295 6-26 06:16 E 8TH ST AND MARTIN LUTHER KING JR PKWY 1050 TRAFFIC STOP
190626442292 6-26 06:16 8200 DIX ELLIS TRL 76 ASSIST OTHER AGENCY
190626442290 6-26 06:15 8200 103RD ST 76 ASSIST OTHER AGENCY
190626442288 6-26 06:14 S I95 EXPWY AND J TURNER BUTLER BLVD 16 ROAD OBSTRUCTION
190626442282 6-26 06:05 13400 BONEY RD 21R BURGLARY RESIDENCE
190626442279 6-26 06:03 E 8TH ST AND N MARKET ST 1050 TRAFFIC STOP
190626442278 6-26 06:01 1900 BALDWIN ST 22 DOMESTIC